GFSMW_250_spd_000.txt.gz
Wind_Speed
29 31 37 35 35 35 36 42 45 50 47 45 50 57 59 59 57 60 61 65 66 67 66 67 68 69 71 73 74 75 77 79 81 81 82 81 82 81 83 80 75 74 74
32 34 35 38 37 40 43 45 46 51 51 53 58 59 61 63 63 66 67 67 67 69 73 74 75 77 79 82 85 87 87 87 89 91 92 93 89 91 93 91 87 88 85
37 36 38 40 41 45 49 49 50 51 57 59 60 64 65 67 68 70 71 68 73 77 80 82 84 88 90 94 96 96 99 98 97 102 104 102 101 101 103 103 102 100 99
40 38 42 45 47 50 53 53 54 57 64 64 62 65 68 71 73 73 73 78 83 87 89 92 94 96 98 102 105 108 110 112 110 109 112 116 119 117 110 112 112 113 112
36 39 42 45 48 52 55 55 57 63 66 67 68 70 70 71 75 79 81 85 90 94 97 99 103 104 107 110 114 115 118 121 122 123 124 125 120 118 113 103 104 108 115
39 42 45 46 51 55 56 60 65 65 68 69 73 75 78 83 86 89 91 94 98 101 105 110 113 116 118 121 121 125 127 127 131 132 126 122 116 108 106 102 93 90 98
45 48 50 50 50 56 60 64 69 72 73 72 75 81 85 90 93 95 99 102 104 110 115 118 123 124 127 129 130 134 137 134 132 129 118 109 103 100 97 94 93 83 82
49 49 49 51 54 57 61 65 72 75 77 79 80 84 89 94 98 102 107 110 114 119 122 125 130 132 133 134 135 134 129 122 114 111 105 101 99 96 97 95 91 87 83
47 51 53 53 58 60 63 69 73 79 84 86 90 93 97 101 105 110 116 120 123 127 131 135 137 135 133 130 125 120 113 111 110 107 105 102 99 96 94 92 87 82 80
48 51 53 57 60 62 69 76 80 84 87 91 96 100 103 108 113 122 127 130 130 133 137 136 134 128 122 117 114 111 109 105 103 100 98 96 92 87 84 80 77 74 71
49 52 58 62 65 70 76 82 85 87 92 97 101 108 114 120 125 130 132 130 133 136 133 125 119 114 110 109 106 105 103 99 94 90 85 79 76 73 71 69 68 66 65
55 59 64 67 71 76 82 84 87 91 97 103 110 118 124 128 131 133 134 134 133 129 125 120 118 116 113 110 105 102 97 90 85 81 78 73 70 67 65 62 61 60 59
59 63 69 73 79 85 87 91 94 99 106 112 117 126 127 133 137 138 133 126 122 119 117 117 114 112 107 102 96 91 84 79 77 75 73 70 67 62 59 57 56 55 54
65 69 74 80 84 89 93 97 103 110 114 118 121 133 134 137 138 129 120 118 117 116 115 112 108 103 96 88 86 83 78 74 71 67 65 64 63 60 55 53 52 52 52
67 73 78 84 87 92 98 104 111 117 121 128 130 133 132 127 122 119 116 115 114 113 109 103 96 89 83 79 79 78 73 68 65 62 59 57 58 57 53 49 49 49 47
74 78 83 87 92 99 104 110 116 126 127 132 133 130 126 113 109 107 106 105 104 99 94 89 83 79 74 73 72 70 64 61 60 58 54 51 50 49 49 46 46 46 44
79 84 88 94 99 105 111 114 122 130 135 132 128 124 116 115 110 106 99 93 89 85 81 77 75 74 69 65 63 62 60 58 53 51 49 47 46 45 44 45 43 43 43
83 89 94 100 105 110 115 121 129 133 131 128 125 115 109 106 103 100 93 87 82 78 76 72 70 67 65 60 58 58 56 52 46 43 43 45 45 40 39 41 38 38 39
90 95 102 106 110 116 124 127 129 130 124 121 116 111 104 100 94 90 85 81 77 74 72 67 62 61 61 57 53 50 49 46 45 43 42 43 43 37 35 36 32 32 33
98 102 108 112 119 125 129 131 128 123 118 112 107 102 100 95 89 83 79 76 73 68 65 62 58 56 53 51 49 49 48 45 41 39 39 38 36 35 34 33 30 28 31
103 109 114 118 125 128 132 132 123 119 112 103 100 97 91 86 81 77 74 70 66 63 60 58 55 52 49 49 49 46 42 40 38 36 34 32 30 30 31 31 28 28 27
108 113 118 124 128 130 133 125 117 110 104 99 94 89 85 80 75 72 69 65 62 60 58 54 52 51 50 48 46 43 40 36 34 31 28 26 25 24 25 26 26 26 25
111 117 121 125 130 132 126 119 108 101 97 93 88 82 77 74 70 68 64 63 59 56 54 52 51 50 47 45 44 40 37 34 31 28 25 23 22 21 21 22 23 24 24
117 122 123 127 131 127 120 111 104 99 91 86 80 76 72 70 66 64 62 59 56 53 51 51 50 47 45 44 40 37 35 31 28 25 22 21 20 19 19 20 21 21 22
121 124 125 129 126 119 113 105 100 94 87 81 76 73 70 67 64 61 60 57 53 50 49 47 45 46 44 41 38 35 32 29 25 22 20 19 18 17 17 18 19 20 22
125 122 127 127 121 114 106 98 94 88 82 77 74 70 68 65 62 60 56 54 52 50 46 44 43 42 41 39 36 33 30 27 24 21 19 19 18 17 17 17 18 19 21

GFSMW_250_spd_003.txt.gz
Wind_Speed
33 33 34 35 35 37 35 35 41 43 46 51 58 58 55 57 62 65 65 65 66 68 70 73 74 73 73 76 79 80 80 82 83 82 82 83 84 85 86 86 86 84 78
34 31 33 32 32 41 43 40 44 50 53 57 59 59 60 63 68 68 69 70 73 74 74 76 78 79 81 85 88 89 88 90 94 96 95 92 91 94 93 94 96 95 93
32 35 39 35 33 43 48 50 51 53 56 58 56 60 64 66 68 71 73 78 80 81 84 86 87 88 90 93 96 100 101 102 104 109 109 106 103 100 102 104 103 102 101
36 43 44 40 42 44 48 51 55 58 56 55 58 62 66 70 74 75 78 81 84 89 92 96 98 100 102 105 107 110 113 115 116 115 118 119 118 113 107 109 111 113 112
32 36 42 49 51 51 53 56 59 60 60 61 64 67 72 76 78 81 84 88 92 96 100 103 106 110 115 118 120 121 124 123 121 120 121 125 123 117 109 100 104 109 111
39 36 37 45 51 56 57 56 57 61 63 68 71 75 81 85 89 91 94 96 100 106 110 111 114 118 122 124 125 125 124 122 122 123 121 114 110 109 107 100 89 89 93
38 37 41 45 50 54 57 59 62 65 66 68 71 77 84 88 92 94 97 102 107 112 116 122 126 130 131 129 129 128 127 122 117 114 109 105 102 99 97 95 90 88 86
44 43 43 44 46 51 55 56 62 68 73 77 82 88 93 97 101 104 107 110 113 121 126 126 130 134 133 130 126 122 116 110 106 103 101 97 94 92 91 89 86 83 81
45 44 47 49 53 54 59 62 67 72 78 84 90 94 97 100 104 110 114 117 120 127 131 134 135 132 129 124 119 114 110 107 104 100 96 92 90 87 86 84 81 77 76
45 49 51 54 55 58 63 68 74 80 84 87 92 98 103 105 110 116 122 124 130 135 136 136 131 125 120 116 110 108 106 103 100 94 88 86 82 79 77 74 71 67 62
51 52 56 59 62 65 69 73 77 80 86 91 96 102 110 114 119 124 130 132 139 139 130 128 123 117 112 109 106 103 98 93 88 84 80 78 74 71 69 67 65 62 58
55 57 58 61 64 68 74 78 83 88 93 97 104 111 116 122 127 134 138 138 137 129 126 123 116 112 107 104 98 94 90 85 79 76 73 70 69 68 65 62 60 59 59
57 59 61 64 69 73 79 85 90 94 99 103 109 116 125 131 133 134 128 125 121 118 118 115 111 108 102 97 91 86 83 77 73 71 70 66 63 63 62 58 55 53 54
55 59 65 67 72 76 82 88 95 100 105 112 117 124 131 134 132 130 122 117 114 108 106 102 97 92 86 82 79 78 76 72 69 67 64 62 60 57 56 54 54 51 51
58 63 66 70 75 80 87 94 99 106 114 122 129 130 132 132 130 124 117 113 110 103 94 88 83 78 76 73 73 73 69 66 64 62 61 60 57 54 51 51 51 46 45
61 66 71 75 82 88 94 100 106 113 120 127 132 134 132 135 127 121 116 107 99 93 86 80 74 73 72 69 68 67 64 63 61 59 58 55 52 49 45 44 45 42 40
67 73 78 84 90 95 101 107 114 119 122 128 134 133 131 126 122 114 107 99 92 85 80 75 72 71 68 64 63 62 59 57 54 51 50 49 46 44 40 39 38 36 35
71 79 86 90 95 102 106 111 117 123 127 132 131 133 125 117 111 104 97 91 84 80 77 73 69 65 63 61 58 56 55 53 50 48 47 46 42 38 37 39 35 32 34
79 85 91 99 105 107 110 115 122 128 131 131 131 130 120 109 99 92 88 82 78 76 74 68 64 62 61 58 55 52 51 48 44 42 40 40 38 36 36 35 32 32 32
88 93 101 106 106 109 116 121 127 130 131 129 128 118 107 98 90 85 78 76 74 71 69 64 60 58 56 54 51 49 46 43 41 39 37 35 35 33 32 30 29 30 29
92 99 106 107 111 116 120 125 128 130 128 128 117 106 98 90 84 79 76 73 71 67 64 61 58 56 54 52 49 46 45 43 38 36 33 31 29 28 26 25 26 27 27
100 105 108 111 117 122 126 126 128 128 126 114 105 98 92 86 79 75 72 68 66 63 61 59 56 53 51 48 46 45 43 39 35 33 31 28 25 23 22 21 21 22 24
106 109 113 117 121 125 127 127 126 126 116 106 97 92 87 80 75 72 68 65 63 60 57 56 54 52 51 48 45 43 39 36 34 31 28 25 22 20 20 19 19 20 22
112 116 119 121 123 126 128 127 126 120 108 99 92 87 81 76 71 68 65 63 60 56 53 52 51 50 50 47 42 39 37 35 32 28 25 23 20 18 18 18 18 18 19
118 121 123 125 126 127 128 126 119 110 100 93 88 82 76 72 68 65 62 60 57 53 51 50 50 48 47 44 42 39 35 32 29 26 23 21 19 17 16 16 16 17 18
120 122 124 127 126 126 126 118 110 101 95 89 82 77 72 68 65 63 60 56 54 52 50 49 44 41 43 42 39 36 33 31 27 24 22 19 17 16 16 16 16 17 17

GFSMW_250_spd_006.txt.gz
Wind_Speed
40 41 43 45 48 45 43 42 47 47 47 52 55 57 61 63 67 68 63 65 68 71 72 74 75 77 79 80 81 80 83 84 84 82 83 84 86 89 94 93 92 90 90
43 41 43 48 48 46 44 45 47 49 52 54 57 60 65 68 68 65 67 71 73 76 79 82 85 87 87 87 89 90 91 93 95 95 94 93 94 97 98 101 101 99 99
42 43 44 43 42 42 42 42 47 51 53 57 61 65 68 67 68 71 74 79 82 84 87 91 92 91 91 93 96 98 101 104 106 107 108 109 106 105 108 111 109 108 110
40 40 39 40 41 41 44 48 52 55 58 61 63 64 66 68 70 74 79 83 86 90 94 97 98 100 102 105 108 111 114 116 117 118 118 121 119 116 111 113 116 117 118
46 46 44 40 42 46 50 54 55 57 59 61 61 63 65 69 74 80 85 90 94 97 100 104 106 110 113 118 121 125 128 130 129 128 130 130 124 116 114 105 107 109 114
43 45 47 47 48 50 52 54 57 58 59 62 64 68 72 77 81 86 91 96 100 105 108 112 115 118 124 129 132 134 135 136 134 129 124 118 111 105 103 97 91 91 95
34 37 41 44 48 55 57 56 56 58 62 65 69 73 77 82 86 91 96 101 105 109 115 119 122 127 133 138 137 135 134 132 128 123 117 112 106 101 94 89 84 81 86
38 38 41 46 48 53 57 60 63 67 71 73 76 79 81 85 90 95 101 106 113 118 122 125 129 136 139 133 130 128 125 122 115 108 103 97 95 92 89 86 84 79 77
42 43 46 49 52 56 59 62 65 67 69 73 77 81 87 92 97 103 109 116 121 126 132 134 133 132 127 127 124 116 112 106 102 98 93 89 86 85 83 82 79 75 72
43 47 47 49 53 56 60 63 65 69 73 78 83 88 94 99 106 112 116 121 128 131 134 131 126 125 124 121 114 106 103 98 92 86 81 78 75 75 74 73 71 71 66
44 46 50 53 57 60 62 65 69 74 78 83 89 94 102 110 114 118 123 129 131 132 126 123 123 119 117 110 102 97 92 90 87 82 76 73 70 69 67 65 64 63 61
48 50 51 54 56 59 63 67 72 79 83 88 96 102 108 115 120 124 127 131 128 127 125 122 117 112 105 99 94 89 86 81 77 75 72 70 67 64 63 62 62 60 58
51 53 54 56 59 62 67 74 79 84 91 97 103 108 113 118 123 128 129 128 127 125 122 116 107 101 95 92 87 81 77 74 72 69 67 64 62 60 57 54 56 56 54
60 60 60 60 62 66 71 77 83 91 96 104 110 114 118 124 129 129 126 125 124 122 115 108 100 92 85 81 77 74 73 70 66 64 62 60 58 56 55 53 52 51 51
61 62 61 61 65 71 77 83 89 96 104 109 114 117 122 126 126 125 123 123 120 115 106 99 91 85 80 76 74 71 68 65 63 62 58 55 53 49 48 49 48 45 45
60 59 60 64 70 76 84 90 96 105 109 116 120 123 125 124 125 124 123 118 110 103 95 88 83 79 75 72 70 66 63 60 58 56 54 51 47 46 44 43 44 43 43
59 62 67 72 78 85 91 98 103 109 116 121 124 128 128 126 123 121 115 106 99 92 86 80 77 73 70 68 65 61 60 57 53 51 50 49 45 43 41 39 41 42 41
64 69 75 80 87 93 99 104 110 115 118 123 127 128 126 126 122 114 104 96 90 83 80 75 72 68 66 63 60 58 55 52 49 49 48 46 44 42 40 37 35 35 36
71 77 82 88 93 99 104 109 114 118 125 127 126 128 126 123 114 104 96 88 81 77 74 70 67 63 61 58 54 52 49 46 44 43 42 42 39 38 34 33 32 32 32
78 84 89 95 99 104 108 114 118 124 128 126 125 124 123 114 106 96 88 81 77 74 70 66 63 60 56 55 52 49 48 46 43 41 38 36 34 32 30 29 28 27 27
85 91 95 101 105 109 114 121 126 126 129 125 123 122 115 106 97 89 82 78 74 70 66 63 59 56 53 52 51 50 48 45 41 38 34 32 30 29 26 25 23 22 22
91 95 100 105 110 115 120 127 128 129 129 125 123 119 109 99 91 85 79 74 69 66 63 58 55 54 52 51 49 46 43 41 39 36 33 30 27 25 22 21 20 19 19
96 99 104 110 117 121 129 132 131 128 126 126 119 111 101 93 86 81 76 71 66 64 59 56 55 55 53 50 45 43 42 40 36 34 30 27 25 22 20 19 17 16 16
100 104 110 116 122 126 133 133 129 125 126 119 111 102 94 88 81 76 71 67 64 60 58 56 54 52 50 49 46 42 37 36 33 30 28 25 23 21 19 18 15 14 14
105 111 116 120 125 132 133 128 126 125 119 113 101 95 88 82 77 71 67 64 61 59 57 54 51 49 48 47 45 41 37 33 31 28 26 24 22 20 19 18 16 14 13
112 116 122 126 130 134 128 124 122 116 109 101 94 88 82 76 72 67 64 60 59 57 54 52 49 48 46 43 41 38 35 33 30 26 25 23 21 20 18 18 16 14 13

GFSMW_250_spd_009.txt.gz
Wind_Speed
42 45 46 45 46 47 46 41 45 50 55 60 68 70 71 72 71 71 72 73 75 75 74 74 74 75 77 79 81 83 86 89 90 91 89 88 89 90 91 92 93 93 93
44 46 47 47 48 49 50 55 56 57 59 62 66 69 68 69 72 74 75 75 75 75 76 78 79 82 85 89 90 91 93 96 98 98 98 96 99 102 103 104 105 105 106
42 44 48 49 52 51 52 55 55 52 53 56 60 63 68 70 72 73 75 78 79 79 82 86 89 91 93 97 100 102 105 107 108 111 111 110 109 110 115 120 120 118 116
37 42 46 49 48 46 45 49 50 50 52 57 60 65 70 72 73 75 77 79 81 85 89 93 96 101 104 108 111 114 119 121 123 124 127 129 129 128 123 125 127 126 121
44 46 46 45 44 44 49 48 49 53 58 62 66 68 69 72 75 78 80 83 87 91 96 103 106 109 113 116 121 124 126 128 130 130 128 126 125 124 120 113 116 119 124
39 40 42 38 36 43 50 51 53 58 61 63 66 68 71 73 75 78 83 89 96 100 104 107 113 117 120 124 127 129 130 130 128 127 124 121 119 118 116 108 99 101 106
35 39 42 41 45 49 52 54 57 59 62 65 68 71 73 77 81 85 89 92 98 102 108 114 116 122 127 130 130 130 127 126 125 124 122 117 112 107 102 97 91 87 90
36 41 45 47 49 51 54 56 57 60 64 67 70 72 74 79 83 88 92 98 103 108 115 121 126 131 131 126 125 122 122 119 118 115 110 103 98 97 94 89 84 79 77
39 42 45 47 49 52 56 60 62 64 66 68 71 74 78 81 87 93 98 105 111 116 122 126 129 127 129 123 120 119 116 112 105 99 93 88 85 83 82 79 75 70 67
41 44 46 49 51 54 57 60 63 64 66 68 71 77 82 87 93 99 106 111 117 122 125 125 125 123 122 122 118 111 104 99 93 88 84 79 74 73 72 70 68 66 62
44 46 47 50 53 55 57 60 62 64 67 70 75 80 86 93 100 106 112 118 120 124 127 125 122 120 117 117 110 103 96 90 86 80 76 73 70 68 67 65 65 64 61
50 51 51 52 54 57 60 61 63 65 70 75 81 88 95 101 108 114 121 123 127 126 123 120 120 117 113 107 102 96 90 83 78 75 73 71 68 65 62 60 60 59 59
55 56 55 55 56 58 60 61 64 71 77 83 91 97 103 108 113 121 127 125 124 122 119 119 114 110 104 98 93 87 81 78 74 70 67 65 65 63 61 57 54 53 55
56 58 57 56 57 59 61 66 73 79 87 93 99 104 108 113 118 127 128 124 121 119 117 111 106 101 96 91 85 81 77 73 70 67 64 62 61 59 56 54 53 51 51
57 57 58 58 59 63 69 75 81 88 94 100 104 108 114 120 126 132 129 126 121 117 112 106 98 93 88 82 78 75 72 69 66 63 61 59 57 53 51 52 51 50 49
57 58 61 63 65 70 76 82 87 94 101 106 110 116 122 127 134 132 127 125 118 112 103 96 90 84 79 75 72 70 67 64 62 59 57 56 52 49 47 44 43 45 47
60 60 63 66 71 77 82 87 93 101 106 111 116 122 126 133 134 128 126 121 114 103 94 90 83 78 73 70 69 66 63 60 56 54 54 53 49 47 45 41 38 39 41
63 65 67 72 77 81 85 93 98 105 110 116 120 127 131 134 129 125 121 115 105 95 88 82 77 72 68 66 64 61 57 54 53 52 52 52 48 45 42 39 37 36 36
70 71 74 79 82 86 91 98 105 110 116 121 127 133 132 127 126 124 117 105 96 89 83 77 72 68 66 62 59 58 56 53 50 47 45 44 41 38 36 35 34 33 32
72 76 80 84 87 92 98 104 111 117 122 127 133 132 128 127 125 118 108 98 90 83 77 72 68 65 61 59 58 56 54 51 47 43 42 40 38 35 33 31 30 28 27
76 82 85 89 93 99 105 111 117 123 127 134 133 127 126 127 120 110 100 93 85 78 73 68 64 61 59 57 55 52 49 48 46 44 41 37 34 31 28 27 24 23 22
84 88 91 95 101 106 111 117 124 129 133 135 129 127 127 122 113 103 96 87 79 73 69 65 61 59 57 55 51 49 48 47 45 41 38 34 31 27 25 23 20 18 18
89 92 96 101 107 112 117 123 130 133 136 131 127 127 122 116 105 97 88 81 75 70 66 62 59 56 54 52 48 46 43 43 42 39 35 32 29 25 23 21 18 16 16
94 97 102 108 112 117 124 132 132 134 128 127 127 123 118 108 99 90 81 75 69 66 62 59 57 54 52 50 47 44 41 38 37 36 33 29 26 23 21 19 17 16 16
99 104 109 114 117 123 132 134 131 127 126 126 122 118 109 100 91 82 75 70 66 63 60 58 56 53 51 48 45 42 39 37 35 34 31 27 25 22 20 18 17 15 15
105 110 115 119 124 131 134 128 125 123 122 119 116 109 99 91 83 76 70 66 63 60 57 57 54 52 48 45 42 39 37 36 35 33 29 26 24 22 20 18 17 15 15

GFSMW_250_spd_012.txt.gz
Wind_Speed
46 43 43 43 46 45 45 45 44 51 55 58 62 67 70 75 78 79 78 76 76 76 78 79 80 80 80 82 83 85 87 90 91 91 92 93 97 99 99 99 99 100 101
37 39 40 43 44 45 47 45 49 54 59 64 67 69 72 72 72 74 75 75 77 80 81 81 82 85 87 88 89 89 91 94 95 97 99 99 102 106 109 111 111 112 111
35 37 39 40 42 43 48 52 55 58 61 62 62 65 66 68 70 72 74 76 78 81 84 86 88 90 90 92 94 96 98 102 107 110 113 114 114 116 116 119 120 119 117
34 37 39 40 44 46 48 49 52 55 57 57 58 60 63 67 70 73 76 79 82 86 88 89 91 93 95 98 101 106 110 113 117 119 122 126 129 131 128 126 125 126 125
32 32 31 34 35 36 39 44 48 50 53 57 60 63 66 70 73 75 77 79 82 83 85 89 94 99 104 106 111 116 119 123 127 130 132 135 134 131 126 117 118 118 119
27 31 34 35 37 40 43 47 50 53 56 59 61 64 66 69 72 74 76 77 81 86 91 95 99 104 109 111 117 124 128 130 134 133 132 128 124 124 123 116 107 105 105
31 34 36 40 43 47 49 52 54 56 58 59 61 63 66 68 71 74 78 82 86 90 95 101 107 112 118 120 125 128 129 121 121 120 117 117 117 113 111 105 97 93 91
35 39 43 46 48 50 51 53 54 56 58 60 61 64 67 70 73 77 81 86 92 98 103 110 115 118 119 120 123 120 117 118 115 112 110 103 99 95 91 87 83 81 79
41 44 47 49 52 55 57 59 60 60 61 63 66 67 69 70 75 81 88 95 101 107 109 112 115 118 117 118 117 117 113 110 111 106 100 94 89 85 81 76 73 70 69
44 49 52 55 57 59 61 62 62 62 63 63 63 65 69 75 81 89 96 102 104 106 111 114 115 116 115 114 114 112 111 104 98 93 89 85 81 79 74 71 68 65 62
49 52 52 54 56 59 60 60 59 59 60 62 64 69 76 83 89 94 100 107 111 116 118 118 118 116 116 115 112 105 100 95 91 87 83 80 76 74 70 66 63 61 58
51 51 52 53 55 57 57 58 58 60 62 65 71 77 82 88 95 100 108 113 120 123 124 120 117 117 115 110 101 97 93 90 86 82 79 75 71 68 65 63 60 56 54
53 53 53 54 55 56 57 60 62 65 68 72 78 83 89 96 102 107 113 123 124 126 124 121 119 115 108 99 94 90 88 85 80 76 73 70 67 65 62 59 56 53 53
56 58 59 58 58 59 61 65 67 69 74 78 84 88 96 103 108 114 123 126 128 124 121 120 116 108 99 92 89 85 82 78 74 70 69 66 62 59 57 56 54 50 49
57 61 61 62 63 63 63 65 69 75 79 85 91 97 105 110 115 122 130 130 128 124 122 116 110 100 93 88 84 80 77 73 70 66 63 60 58 55 53 51 52 49 47
63 65 68 68 66 64 67 70 76 82 87 93 97 105 110 116 122 130 132 127 123 122 116 109 99 93 88 83 78 75 73 69 64 62 62 60 58 55 52 49 47 46 46
72 73 74 73 67 67 71 78 84 89 94 99 104 111 115 121 128 133 129 122 121 117 112 101 94 89 84 79 74 72 69 65 61 60 59 57 54 50 48 45 42 41 41
75 78 78 76 73 76 80 85 90 94 100 105 111 115 120 126 131 128 124 123 118 112 103 95 89 84 79 74 71 69 66 62 56 54 53 50 49 46 45 43 39 36 36
80 82 79 78 79 82 86 91 96 101 106 112 116 124 126 128 127 124 123 119 113 106 98 91 85 80 74 70 68 66 64 60 54 52 49 47 45 42 41 39 36 35 34
84 82 79 81 83 87 92 97 101 107 112 117 124 127 127 122 122 123 120 114 108 100 93 86 79 74 70 67 65 63 61 58 54 51 47 44 41 39 37 35 33 31 30
84 80 82 86 89 93 98 102 107 112 119 123 127 124 120 119 122 120 116 110 102 95 87 79 73 70 67 64 62 60 58 56 53 50 46 40 38 34 33 31 29 27 26
83 84 88 92 95 99 103 107 113 119 122 125 124 120 119 120 120 116 112 105 98 90 81 74 71 67 65 63 61 58 55 53 50 47 42 38 35 32 30 28 26 24 22
87 90 93 97 101 105 109 113 118 122 124 122 121 118 117 117 116 113 107 99 93 83 76 71 68 64 62 60 58 55 52 48 44 42 39 37 33 30 27 26 23 21 19
91 94 98 102 107 112 116 119 121 124 120 119 116 115 115 114 112 108 99 92 85 77 72 69 65 62 60 57 55 52 47 43 40 39 38 35 31 28 26 24 21 19 17
96 99 104 108 114 118 121 122 121 118 116 115 115 114 112 111 109 102 94 86 79 73 69 66 62 59 57 54 51 47 44 41 39 37 38 35 30 27 25 22 19 18 16
100 105 111 115 119 122 123 119 117 115 113 114 114 112 110 107 102 96 89 80 74 71 66 61 58 56 53 51 48 45 42 41 40 38 36 35 30 26 25 23 20 17 16

GFSMW_250_spd_015.txt.gz
Wind_Speed
41 42 42 41 41 41 41 41 43 45 48 50 55 60 65 69 72 76 79 79 79 80 81 82 81 80 81 82 84 85 86 87 87 87 87 89 90 92 93 94 95 96 97
38 38 35 34 36 40 41 43 44 47 50 52 56 60 64 69 73 75 78 79 79 78 79 82 83 83 84 85 87 87 87 88 89 92 94 95 98 101 106 110 112 112 114
30 30 30 31 32 35 39 41 44 48 53 58 61 63 66 67 68 69 71 74 76 78 79 80 82 85 86 86 87 90 94 99 102 105 108 109 111 113 114 117 120 119 120
21 24 26 28 31 36 38 40 42 46 47 50 54 58 62 64 67 69 71 73 74 76 78 80 82 84 85 88 93 99 104 108 110 111 111 112 113 115 115 119 122 123 125
23 24 24 27 30 33 36 39 42 45 48 51 54 58 61 63 65 67 70 72 73 75 77 79 81 86 90 96 101 106 108 109 112 112 114 115 118 122 124 123 121 120 122
26 28 31 33 37 40 43 46 49 51 54 56 59 61 63 64 66 68 70 72 73 73 75 81 87 93 98 102 108 112 112 113 113 115 114 113 115 119 120 116 113 114 117
30 33 35 38 42 45 49 52 54 57 58 60 61 63 65 66 67 68 69 69 72 79 83 88 92 99 104 107 115 114 117 114 113 111 112 113 114 114 110 103 94 89 92
29 34 38 40 43 46 49 51 53 55 57 58 60 59 60 62 64 67 70 75 81 86 90 94 101 106 111 118 117 116 113 109 107 107 108 107 101 97 93 88 81 77 76
31 37 40 44 47 49 50 52 53 54 55 57 58 61 64 66 69 73 77 82 87 90 95 103 106 111 117 118 114 112 111 106 103 101 97 94 91 88 83 78 73 67 66
39 41 43 45 48 50 53 55 56 57 59 59 59 62 65 68 71 76 81 85 91 95 102 106 112 115 117 112 112 111 105 101 96 92 90 88 84 80 76 72 68 63 57
41 45 47 50 51 53 56 59 60 61 61 62 62 64 67 70 75 81 86 91 96 101 108 112 114 115 115 115 111 106 99 93 89 86 83 80 76 74 71 67 65 62 56
46 49 47 47 49 53 58 60 60 60 61 62 64 67 71 77 82 85 92 96 103 109 112 114 115 112 116 113 107 99 93 88 84 81 79 75 72 69 67 64 60 56 52
50 53 55 56 57 59 63 66 65 63 61 62 67 72 77 83 88 94 99 105 109 114 117 116 116 118 116 108 99 92 87 83 80 77 73 71 69 66 64 61 57 54 51
54 57 62 65 66 67 69 72 70 67 67 70 72 78 85 90 95 100 107 111 116 117 119 118 117 116 110 100 93 87 82 80 77 73 70 68 66 64 63 61 57 54 51
60 62 66 70 70 71 73 76 74 71 74 78 81 87 92 97 103 108 113 118 118 119 119 116 116 110 102 94 88 83 79 76 73 70 68 65 63 61 58 55 53 51 49
65 66 69 73 73 75 77 78 77 76 80 84 88 94 99 105 110 114 118 119 119 117 116 115 110 104 94 88 82 79 76 73 71 68 66 63 60 57 53 49 47 46 46
69 71 73 76 77 79 81 81 80 82 85 90 96 102 106 112 115 118 119 116 116 114 114 109 103 95 90 83 78 75 73 71 67 64 62 60 56 54 52 49 46 44 43
74 75 78 78 80 82 83 83 84 86 90 96 102 108 113 116 118 117 118 116 113 113 109 104 97 91 86 80 75 72 71 68 64 61 58 56 53 50 48 46 43 41 38
77 79 81 82 84 86 86 86 88 92 97 102 108 114 117 118 117 117 113 111 112 108 107 101 94 87 81 75 73 71 69 65 62 59 55 51 48 45 43 41 39 36 35
82 84 84 87 88 89 87 91 93 97 102 108 114 117 118 116 115 112 110 111 109 106 102 96 90 83 76 73 71 69 66 63 61 56 50 46 42 40 38 37 36 34 33
85 85 89 91 90 89 92 94 98 103 108 113 116 118 116 112 112 111 110 109 106 104 98 92 85 78 74 71 68 65 62 60 57 53 48 44 40 37 36 35 33 31 30
85 90 91 90 91 92 95 99 104 110 115 116 117 116 109 109 110 110 109 107 105 101 95 88 81 74 72 69 65 61 58 56 53 50 46 42 38 36 34 32 30 29 28
90 88 89 92 93 96 100 105 111 114 117 118 113 105 106 109 110 109 108 104 102 97 91 83 76 72 69 65 61 58 55 53 50 47 44 40 37 35 33 30 28 27 26
88 90 93 95 99 104 108 112 115 116 114 107 105 105 108 110 109 107 105 102 98 91 84 77 72 68 65 61 58 56 53 50 47 44 41 39 37 33 31 30 27 25 24
92 97 99 103 107 112 115 117 115 109 105 107 109 109 110 109 107 105 101 99 93 85 79 72 68 64 61 58 55 54 51 48 44 42 40 38 37 34 31 28 26 24 23
99 101 105 110 114 115 116 112 105 105 109 109 108 109 107 106 105 101 99 93 86 79 73 68 64 61 58 55 53 51 49 46 42 41 40 37 35 33 29 28 26 24 22

GFSMW_250_spd_018.txt.gz
Wind_Speed
36 38 40 42 44 45 46 46 44 41 41 44 46 52 57 60 64 67 69 72 76 78 79 79 80 81 83 84 83 83 83 83 79 79 79 80 82 83 86 89 92 94 95
38 39 38 37 36 36 36 35 36 39 43 46 50 54 57 60 63 65 66 68 71 74 78 81 82 82 83 82 83 84 84 83 80 84 87 90 93 97 99 101 106 107 108
30 30 30 29 31 32 34 36 38 39 41 44 48 51 55 59 62 67 70 72 74 76 79 80 82 82 83 83 82 80 82 88 90 91 97 102 104 105 109 114 114 115 118
22 23 24 26 27 28 29 32 36 39 43 47 52 56 59 62 66 69 72 73 75 77 79 80 80 80 81 79 80 87 90 92 99 103 108 110 114 116 115 118 118 118 120
16 16 17 21 25 29 34 37 40 44 47 51 55 59 62 65 68 70 71 72 72 72 71 72 73 76 79 85 89 94 96 101 106 111 116 119 121 122 119 111 114 117 118
13 18 23 27 30 32 35 39 43 47 50 54 56 60 62 64 65 65 65 65 65 66 67 71 77 82 87 90 94 98 103 107 113 118 119 119 117 114 114 115 113 114 116
20 22 24 28 31 34 37 41 45 46 48 49 51 54 58 61 63 64 65 67 68 70 75 79 84 86 90 93 98 104 109 112 114 116 114 109 108 108 108 108 103 100 101
19 21 26 30 34 38 40 44 45 47 49 52 56 59 62 63 65 66 67 68 71 74 79 83 88 93 97 102 106 110 110 111 111 110 106 105 104 102 100 96 91 86 85
24 28 31 35 37 39 41 46 49 51 53 54 59 61 61 62 64 65 67 69 73 78 84 90 94 98 104 108 111 112 111 109 109 105 101 100 97 94 91 87 82 75 71
28 32 35 39 41 44 46 50 53 56 58 60 64 65 64 63 63 66 69 72 78 84 90 96 101 104 109 111 110 109 110 107 105 101 98 95 90 88 84 78 74 69 62
32 34 39 44 47 51 55 58 61 62 63 65 68 70 69 67 68 72 76 81 88 93 97 102 105 108 108 109 109 108 109 106 102 96 91 88 84 79 75 71 68 65 61
36 38 44 49 53 56 60 64 68 68 68 69 70 71 71 71 73 78 82 89 95 101 105 107 109 107 108 109 108 108 105 100 93 88 84 80 76 72 70 67 64 61 58
43 44 49 54 57 61 64 68 71 73 73 74 74 73 73 75 80 84 90 96 102 106 109 112 109 107 109 110 109 104 97 90 86 82 78 74 70 69 67 63 60 58 56
47 50 54 59 62 65 69 73 74 76 77 78 78 78 78 82 86 91 97 102 108 111 114 112 108 109 109 108 103 95 88 84 80 76 72 69 67 65 64 61 59 57 54
52 55 58 62 65 69 73 77 78 80 81 84 83 82 84 88 92 98 104 109 113 115 112 108 109 109 108 104 95 87 83 79 76 72 69 67 64 63 61 58 57 55 53
56 60 64 67 70 75 80 82 82 82 86 85 84 86 88 93 98 104 110 113 115 111 108 110 111 110 104 95 89 83 79 76 73 70 67 63 61 61 60 56 53 50 48
61 67 71 74 76 80 84 85 84 87 86 86 88 90 95 101 106 111 115 116 109 107 109 109 109 104 96 91 84 80 77 73 71 67 63 60 58 57 56 53 50 46 44
67 73 75 78 81 84 87 85 88 88 88 90 93 97 102 107 112 116 115 108 108 109 109 110 105 97 92 85 81 78 74 71 68 64 60 56 54 53 51 48 45 42 40
72 77 80 82 85 87 86 88 88 89 92 96 99 103 109 112 115 111 107 107 108 109 109 105 100 94 88 84 79 75 72 68 64 60 57 53 52 49 46 44 42 40 39
76 80 85 86 86 85 88 90 91 95 99 102 105 109 114 114 110 108 107 108 110 110 107 99 96 92 85 82 77 72 69 64 60 56 53 52 48 44 42 41 39 37 36
82 86 85 83 85 88 89 93 97 101 104 108 111 112 113 109 108 109 111 110 108 105 99 98 94 89 84 79 73 69 65 61 57 53 50 49 45 41 38 37 37 35 33
85 82 81 83 86 89 93 97 102 105 108 112 112 109 105 107 109 110 107 105 103 102 100 96 92 86 80 74 69 64 60 57 53 50 49 48 43 40 38 34 34 33 31
81 84 85 86 89 95 100 104 107 110 112 108 104 104 107 107 107 106 107 106 105 103 97 93 88 82 75 69 65 60 56 52 49 48 48 46 43 39 37 35 32 30 29
84 86 89 93 99 100 104 107 108 107 105 106 107 104 103 105 108 106 103 104 104 100 94 88 83 76 71 65 60 56 52 50 48 47 46 43 41 39 34 31 31 29 29
89 93 97 100 103 107 109 110 104 102 104 106 109 108 109 109 107 103 104 103 99 94 88 83 78 71 66 62 56 52 50 47 46 45 44 41 39 38 36 33 31 30 28
97 100 103 107 110 113 111 105 106 105 110 113 113 113 111 106 103 104 103 97 92 88 82 79 73 67 62 58 53 50 48 46 44 43 42 39 36 35 34 33 32 29 28

GFSMW_250_spd_021.txt.gz
Wind_Speed
38 37 38 39 41 42 45 47 47 53 53 56 58 59 58 57 59 61 63 65 66 69 71 73 76 79 82 82 84 85 87 86 86 82 82 83 82 82 83 83 87 90 90
35 36 38 41 42 42 44 46 47 47 45 44 46 47 48 50 52 55 60 64 69 72 76 80 82 84 86 87 87 85 84 83 84 81 79 82 87 91 93 94 96 100 101
35 35 36 38 38 38 37 33 33 33 34 37 41 45 49 54 58 63 67 71 75 78 81 83 86 87 87 86 84 82 81 79 82 87 89 90 93 96 102 106 110 114 116
31 32 33 30 26 24 24 27 30 34 38 41 45 49 53 55 59 60 63 65 67 72 74 75 77 77 76 74 75 78 80 85 87 91 98 101 104 107 106 112 117 121 124
24 21 19 18 18 21 25 29 33 36 40 45 48 49 51 52 53 55 59 62 65 67 68 69 68 71 73 74 76 82 87 92 96 103 106 108 111 115 118 115 118 118 118
17 15 14 16 19 23 27 32 36 39 41 44 46 49 52 55 57 60 63 64 66 68 69 68 69 71 74 79 82 88 95 98 103 108 113 116 116 114 114 111 108 109 110
14 13 14 17 22 26 30 33 36 38 42 45 49 51 54 57 58 60 62 65 66 66 68 70 73 77 82 85 91 98 104 106 109 111 111 110 110 110 108 108 104 101 103
13 15 18 22 26 30 34 36 41 45 48 52 55 59 60 63 65 65 69 70 71 70 72 75 80 84 89 96 101 106 108 109 109 107 104 106 106 104 100 100 98 94 94
16 21 24 27 31 34 37 43 46 47 51 56 60 65 69 71 72 73 75 76 74 74 76 81 85 90 97 104 108 110 112 111 108 102 102 101 100 99 99 97 94 89 84
24 27 30 32 36 38 41 47 50 53 57 61 64 69 72 74 75 76 79 78 77 79 83 88 93 99 104 108 112 114 114 110 107 108 105 102 99 97 96 92 87 82 73
32 35 37 39 41 43 47 52 56 59 62 65 69 73 76 75 76 77 78 79 82 85 90 96 101 106 109 113 114 113 110 112 111 109 102 99 96 93 89 84 79 73 69
37 43 44 46 47 48 52 57 61 65 69 74 75 78 80 79 80 80 81 83 87 93 98 102 106 110 111 109 109 108 109 109 106 100 98 94 90 86 81 75 72 70 67
42 43 43 46 52 56 58 62 67 72 76 78 80 82 82 83 84 84 86 90 95 100 103 107 111 112 108 107 109 109 108 102 97 96 92 87 82 77 73 71 68 66 64
46 45 45 49 57 60 64 68 74 78 80 82 84 85 83 86 87 89 94 98 101 105 108 111 112 110 107 109 110 109 101 96 93 89 84 79 75 71 69 66 64 62 60
50 49 49 56 62 67 71 75 78 82 84 86 86 86 87 89 91 95 100 102 107 111 112 111 109 109 109 112 107 97 92 90 87 81 75 71 69 68 65 62 59 58 56
51 52 57 63 68 71 76 78 82 85 87 86 85 87 90 93 97 101 103 106 110 110 108 105 108 112 111 109 98 92 89 86 81 74 71 67 65 64 61 59 56 53 50
54 58 62 66 70 72 77 82 86 86 84 84 87 88 92 97 101 105 107 108 108 105 106 106 113 112 107 102 95 91 88 82 74 70 67 65 62 60 56 54 52 49 46
61 64 65 70 74 79 82 85 83 82 85 88 91 95 99 102 106 111 107 102 102 106 108 108 109 105 99 95 92 88 84 75 70 67 65 62 59 56 52 51 48 46 44
65 67 72 75 79 85 84 81 82 85 89 92 96 100 103 106 109 103 101 104 107 107 110 106 101 97 95 94 89 85 78 70 67 65 62 59 55 52 50 49 45 42 41
69 73 75 80 84 86 83 82 84 88 95 97 102 104 107 106 103 102 106 106 110 109 105 102 101 101 93 91 86 80 72 68 65 62 59 57 51 48 47 45 42 41 38
74 77 80 85 87 84 85 86 90 96 96 100 103 106 101 103 105 109 106 107 104 105 100 100 101 97 94 88 83 75 69 66 62 59 56 53 50 48 45 42 40 39 36
78 83 87 88 87 88 89 91 98 101 104 108 109 109 105 104 106 109 109 106 105 103 104 106 103 95 91 86 76 70 67 64 60 56 53 50 48 46 44 40 38 37 33
83 87 89 89 90 90 92 100 103 106 108 107 106 103 107 110 111 109 111 103 101 102 101 99 96 92 86 79 73 67 65 60 57 54 51 48 46 44 42 38 35 34 33
91 91 90 91 91 95 100 103 106 109 110 108 103 109 114 113 109 110 112 110 107 108 103 98 95 87 78 72 68 66 62 57 55 51 49 46 45 43 41 38 36 32 30
92 91 92 93 98 101 104 108 110 107 107 108 112 112 113 111 109 109 108 107 101 97 93 90 86 79 74 69 65 61 59 56 53 49 47 45 44 42 39 37 35 33 29
92 93 97 100 104 106 109 110 109 108 107 109 111 116 115 114 112 109 104 101 98 93 87 82 77 74 70 66 63 58 55 54 50 47 45 43 42 40 38 35 34 33 31

GFSMW_250_spd_024.txt.gz
Wind_Speed
32 35 42 46 48 52 48 51 53 59 63 66 65 62 62 64 65 64 62 61 62 66 69 72 74 77 80 80 80 81 80 82 80 78 75 72 72 75 77 80 82 85 88
34 36 39 42 45 45 48 45 47 50 53 53 54 53 53 51 51 51 55 59 63 67 68 71 72 73 74 74 73 71 68 70 70 69 70 71 73 79 85 91 95 99 102
36 38 40 40 40 42 44 43 42 42 43 43 42 41 41 44 49 53 56 59 62 64 66 66 68 70 72 72 72 72 71 70 75 78 80 82 84 87 93 98 105 110 114
38 39 39 36 34 33 31 34 35 34 33 34 37 40 42 44 46 48 52 54 58 63 66 67 69 70 73 74 74 74 76 78 79 83 86 92 95 99 101 107 112 116 117
35 33 30 30 28 28 28 27 26 29 32 33 35 38 40 42 46 51 54 59 60 63 66 67 69 72 74 74 77 78 79 83 86 90 96 103 107 112 115 112 112 109 109
30 29 26 23 24 24 23 24 27 29 31 36 41 44 47 50 53 58 63 67 70 69 68 70 73 75 76 77 78 82 86 90 94 100 105 110 114 113 112 109 102 99 102
27 24 24 24 22 23 24 27 30 33 37 42 46 48 53 56 60 64 69 72 75 73 74 75 76 77 80 83 87 93 96 101 104 109 110 110 108 106 104 106 101 98 98
25 25 23 22 24 26 29 32 36 40 44 47 52 53 58 63 67 71 74 77 79 78 78 79 79 82 86 92 97 101 105 110 113 111 109 103 103 104 107 103 99 93 92
25 23 23 26 29 32 36 39 41 47 51 53 57 59 63 68 73 76 79 82 84 82 81 82 84 88 95 99 103 109 111 112 109 106 105 108 108 104 100 96 93 91 86
24 25 28 32 35 40 44 47 49 53 57 58 61 66 70 76 80 82 84 86 84 82 84 86 90 96 102 106 109 111 109 107 108 109 110 109 104 99 96 94 92 90 84
27 29 33 37 39 44 48 50 50 55 61 64 68 72 78 80 84 86 88 85 83 85 88 93 97 103 106 110 109 107 104 105 110 111 110 106 101 98 96 94 91 85 80
34 36 41 44 46 48 50 50 52 59 66 71 75 78 80 84 87 88 84 82 85 89 94 99 102 106 109 108 107 107 108 107 109 107 106 105 99 94 92 87 81 77 73
38 38 41 47 51 51 52 53 59 65 70 76 78 80 84 88 87 83 84 86 90 94 99 103 104 107 105 102 105 108 111 109 107 102 99 96 90 88 84 78 74 70 68
44 45 44 46 50 52 54 59 63 69 72 75 81 84 89 86 84 84 87 93 97 99 102 105 106 104 102 103 104 107 109 105 103 99 91 87 83 81 77 72 69 65 63
45 50 52 51 51 56 61 65 66 68 75 80 85 91 90 87 85 88 94 99 101 105 105 105 101 104 105 107 102 103 103 100 97 89 87 82 75 74 71 67 63 61 59
51 53 56 58 60 64 66 65 71 74 78 84 90 91 89 89 90 94 101 104 108 107 105 101 103 107 109 111 105 100 97 95 89 86 82 76 71 69 65 64 60 57 55
54 56 59 64 67 67 67 72 77 81 83 89 93 91 90 91 96 102 106 109 110 108 103 105 106 107 110 105 98 96 95 90 85 81 77 74 67 66 61 58 57 56 54
56 59 63 66 70 73 75 79 83 85 90 95 93 93 93 96 101 105 109 111 108 104 103 105 108 103 98 100 98 91 90 86 81 76 74 70 63 62 58 55 54 53 52
59 63 68 70 74 78 83 86 87 90 97 93 93 94 98 102 106 110 111 107 105 106 105 104 104 104 103 102 96 92 87 84 79 74 69 66 60 58 55 54 53 52 50
67 68 73 76 81 84 87 90 93 98 95 95 96 100 105 107 111 109 107 106 107 112 116 113 104 96 92 94 93 88 85 81 77 70 64 64 58 55 52 51 50 49 47
69 74 78 84 85 90 91 94 98 95 96 99 103 107 111 111 109 106 107 110 108 106 107 110 107 101 95 93 89 83 82 78 72 65 61 59 57 54 49 49 48 48 45
76 79 85 88 89 91 97 97 95 97 101 104 110 112 111 110 110 109 113 112 112 113 109 103 101 96 91 89 89 83 78 72 67 62 59 56 54 51 48 47 47 47 43
82 86 88 92 93 96 95 94 97 100 106 110 111 112 112 110 109 112 111 113 108 104 102 98 95 93 89 84 82 77 72 67 63 60 57 54 51 47 46 44 44 43 40
88 92 93 96 98 94 95 98 102 108 111 112 111 112 110 111 113 112 110 106 104 102 100 98 93 86 82 75 72 70 68 64 60 57 55 52 49 46 44 42 42 41 37
91 94 98 95 94 97 100 105 109 113 112 113 115 112 112 113 111 109 105 102 102 100 94 88 84 81 77 73 66 63 64 63 59 55 52 49 47 44 42 41 41 38 35
96 96 92 94 97 102 107 111 114 113 112 113 110 110 111 109 110 109 105 102 95 93 89 83 79 76 72 69 66 62 59 57 56 54 51 48 46 43 41 40 39 38 34

GFSMW_250_spd_027.txt.gz
Wind_Speed
31 32 33 34 40 40 39 45 48 50 58 62 69 70 70 74 77 79 82 77 72 66 64 67 69 70 71 72 73 73 74 78 82 79 78 77 76 76 78 80 82 84 86
34 34 36 34 42 41 47 51 56 60 62 63 65 66 65 64 65 64 62 58 59 60 59 59 61 64 68 71 73 74 75 78 79 77 77 76 78 78 80 84 89 93 97
31 33 35 35 40 43 44 43 49 51 54 56 56 57 57 52 51 52 53 53 52 54 57 62 65 68 71 74 75 76 77 77 77 77 76 76 79 82 87 93 96 103 108
35 35 37 36 38 42 42 40 46 49 49 48 45 45 43 44 44 46 48 52 54 57 61 64 67 71 75 78 79 79 79 79 79 81 86 89 90 91 92 98 102 106 110
23 27 31 34 33 33 34 35 40 40 41 41 40 41 41 42 43 45 49 54 57 61 67 71 76 79 83 82 79 80 80 82 86 90 94 98 100 103 102 99 98 100 104
26 29 30 28 28 28 29 32 34 36 39 40 42 42 44 45 46 50 54 60 63 68 73 77 82 86 86 81 80 83 86 90 96 99 103 104 105 102 98 95 97 101 104
28 32 33 30 27 26 29 33 36 38 41 43 43 45 49 53 56 59 62 67 71 75 79 85 88 86 81 82 86 91 96 99 104 108 110 108 105 103 101 101 101 101 101
35 35 28 25 27 30 30 33 37 41 45 50 52 52 55 56 60 65 67 73 79 80 85 91 88 84 83 86 92 98 102 106 110 110 109 108 107 110 110 108 106 95 87
34 31 28 28 28 31 33 34 38 43 50 53 54 56 58 63 67 70 75 80 81 86 91 90 86 86 88 93 100 103 106 110 109 107 106 108 106 108 112 113 107 96 90
36 28 27 29 31 34 37 39 43 49 53 57 57 58 63 67 72 74 76 81 86 90 92 89 88 88 92 97 104 110 111 109 107 105 108 110 108 109 111 109 105 100 94
30 29 29 32 37 41 43 45 45 48 52 57 59 62 67 70 70 75 80 84 89 94 91 90 90 94 99 103 109 111 111 105 106 108 110 112 112 108 107 105 100 97 93
31 30 32 37 40 43 46 49 49 51 54 61 65 67 66 70 75 80 84 87 94 91 91 92 95 99 103 108 111 110 106 104 106 109 109 110 108 101 101 99 94 90 85
31 33 34 39 44 46 51 53 54 56 61 66 70 66 72 77 82 85 88 95 94 91 92 94 100 104 108 110 108 101 102 105 107 106 109 103 98 94 91 89 86 82 76
34 35 36 40 43 47 51 55 59 62 65 66 70 75 78 83 86 90 94 97 94 94 96 102 106 107 108 105 104 103 105 106 105 98 99 96 93 88 85 83 78 73 69
46 42 42 46 48 51 54 58 60 64 67 71 77 81 85 89 90 95 97 94 96 99 104 107 109 106 103 104 104 105 105 104 102 98 93 90 88 82 79 75 70 67 65
48 53 51 52 56 55 57 62 65 67 71 78 83 87 90 92 97 99 96 98 101 107 109 109 106 104 102 104 106 105 102 96 97 95 91 86 81 77 73 68 66 63 61
51 56 59 59 57 61 66 69 71 74 79 85 89 91 94 99 99 98 100 104 109 111 110 107 104 102 105 106 108 105 100 97 95 91 87 82 78 71 68 65 63 61 57
53 56 62 65 66 69 73 77 77 80 85 89 92 94 98 98 98 101 106 110 112 110 109 106 105 106 105 106 101 100 98 97 92 85 80 78 73 69 66 63 60 56 54
57 61 63 66 72 75 78 81 84 88 91 93 97 97 96 98 101 107 111 113 111 108 107 108 110 110 105 102 101 99 93 89 87 80 77 75 70 66 63 60 58 54 50
63 66 68 71 74 78 83 87 90 92 94 100 97 95 97 102 109 113 113 110 108 110 110 111 112 107 104 99 95 91 85 82 80 77 72 70 65 62 60 57 55 51 48
67 67 71 74 78 83 87 90 91 93 99 97 98 101 105 109 114 116 116 112 111 110 110 110 108 103 98 95 92 87 83 79 74 72 67 66 62 59 56 54 51 48 45
72 74 76 80 84 89 92 92 93 100 101 100 103 107 113 117 118 117 113 114 114 113 112 108 103 99 92 88 84 80 78 75 71 69 65 62 59 56 54 51 49 46 43
77 80 83 86 90 92 92 95 100 102 101 103 106 111 116 118 117 115 112 113 113 113 108 103 98 93 88 81 79 77 75 72 67 65 62 59 56 53 51 49 46 42 40
81 85 89 91 92 93 95 100 103 101 104 105 110 116 118 116 114 110 111 112 114 111 106 100 94 88 83 78 74 73 72 68 65 62 60 57 54 51 48 45 43 41 39
86 89 92 94 95 97 101 104 101 104 107 111 117 119 117 114 112 111 111 110 108 104 100 97 89 83 80 74 71 68 66 64 62 60 55 53 50 47 45 42 40 39 37
88 91 94 96 97 102 104 101 104 109 112 116 120 119 114 111 110 108 108 110 107 101 95 90 85 81 76 71 67 64 61 59 58 55 53 50 47 44 42 39 37 37 36

GFSMW_250_spd_030.txt.gz
Wind_Speed
46 53 52 49 52 50 48 52 54 55 57 59 61 66 73 75 72 71 75 76 77 78 77 75 72 69 68 70 70 71 73 78 81 84 86 84 81 81 81 82 84 86 88
36 43 48 47 48 52 50 45 44 50 55 54 57 59 62 67 72 75 74 74 74 72 71 68 68 67 67 70 71 73 78 82 87 88 82 77 79 82 85 89 91 94 98
31 39 43 42 42 39 36 38 42 48 53 56 59 60 62 61 64 66 67 65 64 66 67 66 65 65 68 73 75 79 84 88 90 86 81 80 83 87 93 96 99 104 107
30 31 35 39 40 40 37 40 44 49 49 54 54 56 57 57 56 56 59 60 62 64 64 65 67 69 74 77 80 86 91 95 92 87 87 89 91 94 98 101 105 104 103
35 34 38 40 36 32 35 35 38 42 47 49 48 47 48 49 53 57 58 60 62 66 70 73 74 75 77 80 85 90 94 93 90 90 90 94 99 104 108 110 110 106 103
38 39 33 33 27 27 30 30 40 39 39 40 42 43 46 51 54 57 60 63 66 67 68 71 74 77 79 84 89 95 96 93 91 92 95 99 104 109 112 112 107 105 105
37 38 35 25 24 29 28 31 33 35 38 41 44 47 49 51 55 58 60 64 67 69 69 72 75 79 84 88 93 96 93 92 93 96 102 107 112 113 112 109 107 106 105
33 30 28 29 31 25 25 29 36 39 42 44 46 48 52 55 54 57 62 64 65 66 68 74 80 85 89 92 98 95 93 95 99 105 110 112 112 111 110 110 110 111 107
28 27 27 32 25 28 32 35 39 44 45 47 48 51 53 56 60 63 65 66 66 71 75 81 85 89 93 98 95 94 97 101 106 110 110 107 107 109 110 113 112 114 105
29 34 33 32 34 33 32 37 42 45 48 51 54 56 59 61 63 66 66 69 74 78 83 87 90 94 99 96 96 99 104 108 109 106 103 106 106 108 111 112 111 110 107
25 26 30 34 36 34 35 39 43 47 50 54 58 61 64 64 65 67 71 76 81 85 88 91 96 99 97 98 101 106 109 109 106 104 105 106 106 109 111 109 106 102 99
26 32 35 35 37 38 38 41 45 49 53 58 63 67 66 66 70 73 78 82 86 89 92 96 98 97 99 104 107 108 106 106 107 104 106 108 108 110 109 106 101 97 92
29 29 32 35 38 42 46 49 52 55 59 62 64 66 68 70 74 77 83 86 89 94 95 94 95 98 105 109 107 104 103 103 104 105 106 108 108 106 103 98 94 90 85
29 31 33 34 38 43 48 50 52 56 59 62 66 69 70 72 78 83 86 89 96 94 92 94 98 105 107 105 102 102 103 104 105 106 107 105 104 100 96 91 87 82 79
33 32 35 40 44 47 49 52 55 61 63 65 68 71 76 81 85 88 88 96 96 94 95 99 104 106 104 102 103 105 105 105 106 106 104 101 99 96 91 87 82 76 71
39 41 44 46 48 49 52 57 62 63 64 67 71 77 81 87 89 90 95 98 95 96 100 105 108 105 103 102 103 106 108 108 104 100 99 96 94 89 85 80 76 70 66
44 48 50 51 54 56 60 64 66 66 69 73 78 83 87 89 91 94 99 95 98 101 104 108 106 104 103 106 108 109 109 104 100 97 95 91 87 83 78 74 70 66 63
52 55 56 58 60 63 66 68 70 73 76 81 85 88 91 91 94 100 96 100 103 110 113 114 111 109 110 110 111 110 105 99 96 93 88 85 80 76 74 70 67 63 59
57 58 60 61 64 67 70 73 76 80 84 87 90 92 93 96 102 97 99 104 110 113 117 115 111 111 113 112 111 106 103 97 91 86 81 78 75 73 70 66 62 59 55
59 60 61 63 67 71 73 77 82 86 89 92 94 96 97 103 99 102 107 110 113 118 118 115 113 113 114 112 108 103 97 89 84 79 77 73 70 67 64 61 60 57 53
62 63 64 66 70 74 77 82 86 90 92 94 96 96 102 100 101 105 110 113 119 120 114 112 112 114 113 111 104 96 90 84 80 75 71 68 66 64 62 58 56 54 50
64 66 68 73 77 80 84 87 90 92 95 96 98 102 102 102 105 110 113 118 120 114 114 115 113 111 109 104 97 89 86 83 78 71 67 65 63 60 57 55 52 50 48
65 69 73 78 82 85 89 91 92 96 96 98 101 102 102 105 109 113 116 120 117 115 116 114 110 106 102 97 90 86 83 79 75 69 65 61 59 57 53 51 49 47 45
69 73 78 82 86 89 91 93 96 97 99 101 103 102 106 110 111 115 118 117 116 115 114 109 105 102 97 90 84 81 77 74 71 66 61 57 55 52 50 48 46 44 43
75 80 83 86 89 91 94 96 98 99 101 103 102 106 110 112 115 118 118 115 114 113 108 104 99 94 88 85 81 77 73 69 66 62 56 53 53 51 49 47 45 42 40
81 84 88 91 93 96 97 98 99 101 104 103 106 111 113 115 116 117 116 116 113 109 104 100 92 87 83 79 76 73 68 64 60 59 56 53 51 49 46 44 42 40 38

GFSMW_250_spd_033.txt.gz
Wind_Speed
51 51 51 53 48 42 43 47 49 48 49 54 59 59 64 66 64 64 67 67 69 71 73 76 74 75 71 70 71 72 74 75 78 83 87 91 92 94 97 98 97 92 88
39 48 51 46 48 49 53 51 55 54 54 56 55 58 60 61 61 64 68 69 70 71 71 73 72 70 71 72 73 77 79 84 86 89 89 90 95 98 102 102 96 93 92
42 45 47 48 48 47 48 51 52 51 49 50 52 52 53 54 58 61 63 63 64 64 66 67 69 71 74 77 79 82 84 84 84 85 90 93 95 101 102 99 97 99 101
37 39 38 39 37 36 41 44 45 46 46 48 49 50 55 55 57 58 59 58 59 62 66 70 73 77 78 79 80 80 77 80 85 89 93 97 101 99 94 97 100 105 108
37 37 36 37 37 37 39 43 41 43 40 40 41 43 49 50 51 52 54 57 62 66 68 69 66 68 73 75 74 78 81 85 88 92 96 100 97 97 100 102 107 111 111
41 41 38 38 39 39 37 39 31 32 35 35 36 39 44 47 51 53 57 62 65 68 66 68 69 68 68 73 78 81 86 90 92 96 97 95 97 102 108 109 110 109 107
32 32 34 36 41 41 37 29 28 29 34 37 40 42 46 49 54 57 58 62 64 67 69 69 68 70 76 80 83 87 90 92 95 93 95 99 106 108 110 109 105 105 105
37 32 30 30 32 33 25 23 32 31 36 40 45 48 50 53 54 58 61 64 67 69 69 70 72 76 81 83 88 91 92 90 92 96 101 107 108 108 108 107 109 110 109
30 29 28 28 29 24 26 31 34 36 41 47 49 50 53 53 56 59 63 68 68 69 71 72 76 82 83 87 93 91 89 93 97 102 106 105 106 107 108 110 111 113 112
25 25 26 27 28 30 31 34 38 46 47 48 51 51 51 53 57 63 66 65 69 70 74 78 82 85 86 94 94 91 93 98 103 106 104 104 105 107 109 113 115 114 112
27 27 24 25 26 28 32 37 43 46 47 48 49 50 53 57 61 63 65 68 70 75 80 83 85 87 94 96 92 95 99 101 106 105 105 105 107 109 111 114 114 109 102
25 26 26 28 31 34 39 43 43 43 46 49 52 55 59 62 65 66 68 70 75 80 84 87 88 93 96 93 97 100 102 106 107 105 105 107 109 110 112 109 106 102 98
27 28 29 31 33 37 39 42 42 48 53 55 58 60 64 68 67 69 73 79 84 86 88 90 94 96 93 97 101 102 108 106 102 103 105 107 108 108 105 100 96 93 88
28 28 31 32 36 38 39 40 46 54 58 61 63 66 70 69 71 74 79 84 86 88 90 93 97 94 97 101 102 108 108 105 104 106 108 109 107 103 98 94 88 84 81
29 31 33 37 38 36 41 50 54 58 61 63 66 69 71 72 76 80 85 87 89 89 92 96 95 99 102 104 107 109 108 108 109 110 109 105 103 98 92 87 82 79 78
34 35 38 39 41 45 49 53 58 60 63 66 69 72 73 75 81 85 86 89 90 92 97 96 99 102 104 108 111 112 110 111 112 110 107 105 101 94 86 82 78 75 72
36 38 42 44 47 50 53 56 58 62 65 68 71 74 78 81 85 87 89 89 91 96 96 98 104 104 110 113 114 113 113 113 113 111 108 102 96 89 84 79 75 71 68
40 43 46 50 53 55 58 62 64 66 69 73 76 79 82 87 89 90 92 94 97 98 98 104 105 108 113 116 116 115 114 115 113 110 105 98 91 85 81 76 72 68 65
45 48 51 55 56 60 63 64 66 69 73 77 80 84 87 90 91 95 95 95 99 99 103 106 109 112 117 118 116 117 117 114 111 107 99 91 86 81 77 73 69 66 62
49 52 55 57 60 63 65 67 69 74 78 82 85 88 92 95 98 97 99 102 100 104 107 109 112 116 117 120 119 117 115 111 107 101 91 86 80 77 73 68 64 61 58
53 55 57 59 62 65 68 70 74 78 82 86 89 92 95 97 99 100 102 102 104 107 109 110 115 118 119 119 118 116 113 108 102 94 86 81 75 72 68 63 59 56 55
56 58 62 65 67 70 73 75 79 83 87 90 94 97 99 100 100 102 101 104 107 109 111 114 117 118 116 116 115 111 108 103 95 89 82 77 71 68 63 59 56 54 53
59 62 65 69 72 75 77 80 84 88 91 95 97 99 100 100 102 101 104 108 110 110 113 116 115 116 117 116 111 107 101 95 88 83 79 73 67 65 61 58 55 52 51
63 67 70 74 76 79 81 85 88 91 94 97 99 100 100 102 101 104 108 109 111 113 116 116 115 115 114 111 106 100 95 89 82 78 75 70 64 62 59 56 53 51 49
69 72 75 78 80 82 85 88 91 94 97 99 99 100 102 102 105 109 111 111 114 116 115 116 115 111 107 104 97 94 89 82 79 75 72 66 63 60 56 54 51 49 47
74 77 80 81 83 85 87 90 94 96 97 99 100 103 103 107 110 112 111 113 115 115 116 115 114 109 103 93 89 88 83 80 76 71 68 64 60 57 55 53 50 47 45

GFSMW_250_spd_036.txt.gz
Wind_Speed
39 42 42 43 40 38 44 49 54 48 52 53 55 59 54 55 58 61 64 68 68 68 66 66 65 67 69 67 67 70 75 77 77 78 80 82 81 82 83 87 89 93 95
28 38 41 42 40 42 45 46 53 54 57 55 57 58 61 62 63 64 60 61 61 61 64 65 65 65 64 66 70 73 72 74 78 81 78 77 82 85 89 91 94 97 98
29 28 36 40 46 47 50 49 52 53 54 59 56 56 57 56 56 55 55 55 57 58 60 61 60 62 66 70 73 75 79 81 78 77 81 83 85 89 92 94 95 97 99
42 38 33 36 40 39 39 39 40 41 44 47 49 50 51 51 51 49 48 51 52 53 56 60 63 66 68 70 74 77 77 75 79 83 87 87 92 94 91 91 94 98 103
40 40 39 35 35 32 35 37 39 42 44 45 43 40 42 45 45 46 49 51 53 56 60 63 65 68 69 72 73 75 76 77 81 85 87 90 96 96 94 93 98 103 109
40 39 35 35 37 40 41 42 38 40 38 35 38 37 38 41 45 48 51 55 58 61 63 65 67 71 72 71 73 74 78 82 84 87 91 97 96 94 98 102 106 108 110
32 34 36 36 39 38 39 37 35 33 32 28 36 38 41 45 47 52 57 59 63 65 64 67 70 71 71 73 76 80 83 82 84 90 97 96 96 100 106 109 109 106 105
35 34 35 37 39 42 37 33 22 20 32 35 37 40 42 48 54 58 60 63 63 65 66 70 71 73 75 79 83 83 83 84 89 96 95 96 101 106 108 109 110 108 108
38 40 40 42 43 36 31 26 20 29 35 40 42 45 46 51 56 60 61 62 64 66 70 72 72 75 80 83 83 85 86 90 96 95 96 102 106 107 109 109 109 111 110
38 39 39 34 31 31 28 26 26 31 36 40 44 48 51 55 58 59 61 62 66 69 73 72 76 79 84 85 86 87 91 96 96 97 103 104 104 108 109 109 111 112 110
36 32 31 28 29 25 25 25 28 31 35 41 48 54 56 54 57 61 62 65 68 72 72 75 80 84 85 88 89 92 95 96 97 103 105 105 108 110 110 111 112 110 107
31 31 29 27 23 25 27 28 31 34 38 41 50 52 54 58 63 63 65 69 72 74 76 80 84 86 89 91 93 95 98 98 103 106 106 109 111 112 112 111 109 104 96
30 29 27 24 26 28 29 31 34 38 42 45 48 53 58 60 64 67 69 71 74 76 80 85 88 91 94 97 98 101 100 103 107 106 109 111 113 112 112 110 103 97 93
30 29 26 28 31 31 30 35 39 44 48 51 55 58 60 65 68 70 71 75 77 80 83 87 91 96 97 98 102 100 103 108 107 110 113 115 114 114 110 104 101 96 89
31 29 30 32 32 32 35 37 43 47 51 55 60 63 66 69 70 73 76 78 80 85 89 92 96 98 99 101 100 104 108 107 110 113 116 115 115 110 108 104 98 90 84
37 34 33 34 35 38 41 46 48 52 57 62 66 67 70 72 75 76 79 81 84 88 92 97 96 98 101 100 103 107 108 110 113 116 117 115 113 111 106 99 91 85 79
40 37 36 38 40 43 46 50 53 58 62 65 67 70 73 75 77 79 82 85 89 95 96 98 100 103 103 105 109 111 111 114 117 118 116 116 114 108 102 93 87 82 74
39 39 41 42 44 47 51 55 60 63 65 67 70 73 76 78 80 83 87 90 94 96 101 102 103 104 105 109 114 114 114 116 117 117 118 116 110 103 95 90 84 77 70
39 41 43 46 48 52 56 61 64 65 67 70 74 76 79 82 84 87 91 94 97 100 101 103 105 105 110 113 117 116 116 117 118 119 117 113 105 97 90 84 79 73 67
41 44 47 49 53 57 61 63 65 68 71 73 75 79 82 84 87 91 94 97 99 101 102 106 105 109 113 117 117 118 118 118 117 118 114 107 98 91 86 79 76 69 64
44 46 50 53 57 60 62 65 68 71 74 77 79 82 85 88 90 93 97 99 101 102 106 104 110 113 117 117 118 119 118 118 116 114 108 98 92 87 81 74 72 64 62
48 51 54 57 59 62 66 69 71 73 76 79 83 86 89 91 93 97 98 100 102 106 106 108 113 118 120 118 118 118 118 115 112 108 100 94 88 81 77 71 67 62 59
54 56 59 61 64 67 70 72 74 77 80 84 87 89 92 94 96 98 100 102 107 107 109 113 117 118 119 120 119 117 116 113 106 101 93 89 84 77 71 68 63 60 57
59 62 65 67 69 71 73 75 78 82 85 87 89 91 93 95 96 99 102 106 110 110 114 117 118 118 116 118 118 116 114 108 99 93 88 85 80 74 68 65 60 57 56
63 66 68 71 72 74 77 81 83 85 87 89 91 93 95 97 101 104 106 110 112 114 117 118 118 116 113 115 116 114 107 98 94 89 85 80 76 70 65 62 59 57 55
67 69 72 75 77 80 82 84 86 88 90 93 95 97 99 102 104 106 110 113 115 118 120 120 118 114 114 113 111 105 98 91 87 84 81 77 72 67 63 61 58 55 53

GFSMW_250_spd_039.txt.gz
Wind_Speed
29 29 35 34 32 44 43 43 44 45 51 53 55 54 55 55 54 59 62 66 70 69 70 66 67 64 62 66 64 63 63 65 67 70 73 76 77 74 75 78 82 86 89
31 34 29 30 33 36 35 44 41 41 44 47 51 57 58 55 61 65 65 65 65 65 67 66 60 60 60 59 60 62 65 67 70 75 75 71 72 77 81 84 87 88 91
27 30 28 31 35 40 43 42 42 45 48 51 53 57 61 63 59 60 63 64 61 60 58 54 54 55 58 60 63 65 67 72 74 72 74 73 78 82 85 87 89 91 96
28 27 28 30 28 32 38 40 42 44 45 45 48 47 47 50 50 48 48 47 49 46 50 52 56 58 61 64 66 69 71 73 70 72 74 81 85 86 86 88 92 96 97
26 33 32 31 33 33 32 35 33 34 36 40 41 39 43 42 42 42 42 44 46 50 53 58 61 63 66 66 68 72 73 73 74 76 81 85 87 88 89 90 96 97 98
31 33 33 37 37 38 34 33 35 38 36 34 39 42 44 41 37 38 42 46 49 53 58 61 64 67 67 69 72 75 75 75 79 83 85 88 90 92 93 96 97 96 101
30 31 30 28 29 31 33 33 35 36 36 35 39 40 38 40 41 44 48 51 53 58 62 65 68 69 71 73 75 76 75 78 82 86 88 91 93 95 99 100 98 102 108
30 30 29 28 29 31 34 35 36 36 30 32 37 33 36 41 47 53 56 58 59 60 65 68 69 72 73 75 77 77 80 83 86 88 92 94 96 99 101 100 104 108 107
24 26 29 32 34 35 38 38 37 34 27 28 33 39 40 47 52 56 58 61 60 64 68 71 72 72 74 76 79 82 84 85 89 92 94 97 100 101 101 106 109 109 108
32 33 35 34 34 34 35 34 33 32 32 36 38 40 45 47 52 57 59 59 61 68 72 74 74 75 75 79 82 85 87 88 92 94 98 100 100 102 107 110 110 112 111
36 39 37 35 35 33 31 31 33 29 30 32 38 41 44 46 52 55 55 60 66 73 73 75 76 76 80 83 87 90 91 94 94 97 100 101 103 107 110 111 112 113 113
40 42 37 36 34 33 31 31 27 26 27 30 33 37 43 51 52 53 59 66 72 72 74 77 79 81 82 86 89 92 94 96 99 100 103 103 108 111 112 114 114 114 114
41 42 35 33 33 33 31 31 27 29 33 36 39 43 49 50 55 61 66 70 71 74 77 81 83 86 88 90 92 95 96 98 102 105 103 108 112 115 116 116 116 117 113
34 31 32 31 31 33 35 32 32 36 37 40 45 49 53 57 62 65 67 69 72 76 79 83 86 87 90 94 95 97 99 101 105 104 108 113 117 119 118 118 118 116 109
35 31 33 33 32 36 37 36 37 40 43 48 51 54 59 62 65 68 71 75 77 80 84 87 87 90 93 97 99 99 102 106 107 109 113 117 121 121 120 118 116 111 106
41 40 33 34 35 38 41 43 45 46 48 52 55 59 62 66 69 72 75 78 81 83 86 88 90 93 96 100 101 104 105 110 109 113 117 121 123 122 120 116 113 107 100
39 39 41 41 42 42 45 47 49 50 53 56 60 64 67 70 73 76 79 81 83 85 87 90 94 97 100 101 103 106 109 110 112 116 121 123 123 120 116 113 108 101 93
43 45 45 46 47 46 46 48 51 53 56 60 64 68 71 74 76 79 82 81 85 87 89 92 95 98 101 102 106 109 111 112 116 120 124 123 122 118 114 109 103 95 86
40 43 45 45 45 47 49 51 54 58 61 65 69 71 73 76 79 82 82 85 88 90 92 95 97 101 105 107 110 111 113 116 119 123 124 122 119 114 110 103 97 89 82
36 38 41 43 45 48 52 55 59 63 66 68 70 72 76 80 81 82 85 88 90 92 95 98 101 104 106 109 111 114 115 119 121 124 124 121 117 112 106 97 91 85 78
37 40 43 45 48 52 56 59 62 64 66 69 73 77 79 80 83 85 87 90 92 96 98 101 105 106 108 110 113 116 119 121 121 122 121 117 113 107 99 91 85 80 75
42 44 46 48 50 53 57 60 64 67 71 74 76 78 80 82 85 88 92 94 97 100 102 103 104 108 111 114 116 120 122 121 119 117 115 111 108 100 91 84 80 75 70
47 49 51 53 55 58 60 63 66 69 72 75 77 80 83 87 90 93 95 98 98 99 101 103 104 108 111 117 123 123 122 120 115 112 109 106 99 91 85 80 74 69 65
50 52 54 56 59 61 64 66 68 71 74 78 80 83 86 89 91 93 94 96 99 101 104 106 108 108 113 119 119 119 119 117 114 109 102 96 91 86 82 77 70 65 63
52 54 57 60 62 64 67 69 72 74 75 78 82 87 89 91 93 94 96 99 102 105 107 107 109 112 114 114 113 112 111 113 111 103 97 90 83 79 76 72 66 63 61
56 59 61 63 66 68 70 71 74 78 80 85 88 90 92 93 94 97 101 104 105 106 109 112 114 115 113 111 111 110 109 106 100 94 89 85 79 74 69 66 64 62 59

GFSMW_250_spd_042.txt.gz
Wind_Speed
34 27 27 30 36 39 51 42 45 46 44 48 53 44 46 52 52 51 59 63 64 68 64 70 74 75 71 71 67 64 61 59 60 62 63 64 70 75 76 76 76 78 81
28 30 26 26 32 36 41 48 46 45 45 46 47 49 61 66 71 70 70 65 66 67 69 70 69 69 64 62 58 56 60 61 63 65 67 70 71 74 75 80 81 84 87
20 28 30 30 30 33 32 38 48 50 46 46 48 53 49 50 54 59 61 63 63 63 61 63 65 58 56 56 58 62 63 64 68 70 74 75 79 78 75 79 86 88 89
25 22 31 35 34 31 33 36 38 39 43 47 47 53 57 55 57 55 57 55 54 54 54 55 53 53 55 57 63 66 67 70 72 75 77 80 82 83 85 83 86 89 91
22 29 27 28 31 35 34 34 33 36 37 42 46 46 47 51 51 53 51 51 51 52 51 50 52 55 59 62 66 69 71 73 76 76 75 78 82 86 89 91 93 91 90
21 21 24 28 31 33 34 38 33 36 34 35 39 43 41 42 46 50 51 51 48 47 49 52 58 61 64 68 70 70 74 78 79 77 77 81 84 87 89 91 94 94 95
28 30 32 33 34 36 36 36 39 39 36 34 33 36 41 40 43 44 49 47 47 52 56 61 64 66 69 70 70 76 78 79 79 77 81 85 88 92 93 94 96 97 101
30 31 33 34 34 32 32 33 32 32 33 31 27 23 35 39 36 41 46 52 53 56 61 65 67 68 70 72 76 81 83 79 80 81 85 89 92 94 96 96 95 99 101
25 26 27 30 32 33 34 36 37 35 36 33 32 36 30 42 40 48 52 56 60 61 63 65 66 69 73 76 83 86 83 84 84 85 90 93 96 98 97 98 99 103 101
29 30 32 32 33 34 35 35 38 38 37 35 35 42 48 48 47 51 54 56 60 62 64 66 67 71 77 83 86 85 86 88 89 90 94 97 98 98 99 101 105 108 108
32 34 34 34 34 36 37 38 38 39 38 37 38 49 48 46 50 52 54 57 60 63 65 66 69 77 82 84 85 86 88 92 94 95 98 101 101 101 103 105 110 112 113
37 38 38 39 37 37 40 41 38 37 40 40 42 50 55 53 50 50 54 59 63 65 68 70 77 81 84 84 86 89 92 96 97 99 100 102 103 105 109 112 114 115 117
41 41 40 42 42 43 39 38 39 39 40 41 44 44 45 46 49 54 59 63 64 68 72 77 82 82 84 87 89 93 96 97 100 101 102 104 107 110 113 114 116 118 121
39 42 39 37 36 36 37 39 42 42 43 44 45 45 47 50 54 58 63 67 70 73 77 79 83 85 88 90 92 96 99 99 101 104 106 109 111 113 115 117 119 122 125
32 33 31 32 37 38 39 41 44 44 44 43 48 51 52 55 59 63 67 71 74 77 79 82 85 87 91 93 95 98 100 102 105 108 110 111 113 115 117 120 123 126 125
37 37 39 39 39 39 41 41 39 43 47 51 54 55 57 60 64 68 71 74 77 79 82 85 89 91 92 95 98 99 100 104 106 108 110 113 115 118 119 122 127 127 123
38 39 39 41 42 43 42 42 44 47 50 54 57 60 62 65 67 70 73 76 79 82 85 87 89 92 95 96 98 100 102 103 106 109 112 115 119 119 123 126 126 123 119
36 39 40 41 44 46 47 47 47 48 49 51 54 58 62 65 68 72 76 78 82 84 86 89 92 95 97 98 99 101 102 104 108 111 114 118 120 124 126 127 123 119 113
34 34 36 38 39 40 41 43 44 46 48 51 55 59 63 68 71 74 77 80 82 84 88 90 91 93 97 98 100 102 103 106 111 113 116 120 124 127 125 123 119 113 109
40 37 38 39 41 41 43 45 47 49 53 56 60 63 66 69 72 75 77 80 83 83 86 91 93 96 99 101 104 106 107 108 110 114 119 122 125 125 121 118 112 107 102
43 43 43 43 43 44 46 48 50 52 55 58 61 64 66 70 73 76 78 79 81 85 89 92 95 98 100 103 105 107 108 109 111 116 119 120 121 119 117 112 106 101 94
45 47 44 44 45 47 49 50 53 55 58 60 63 66 69 72 74 75 78 81 86 91 94 96 98 101 102 102 105 108 110 114 117 116 116 117 113 111 111 107 98 93 86
47 47 48 48 48 49 51 53 56 58 60 62 64 66 69 73 75 79 84 89 92 95 98 99 100 102 104 106 107 110 114 117 119 119 116 111 109 108 104 97 90 85 81
47 49 51 50 49 49 51 53 55 57 59 63 67 70 75 79 83 88 94 98 100 100 98 98 101 105 106 106 108 110 112 115 116 111 108 109 107 100 94 88 85 80 75
49 50 51 52 54 56 58 59 61 63 67 70 74 78 82 87 92 96 98 96 94 96 98 101 104 105 103 105 108 110 111 111 106 105 105 102 97 91 88 83 79 75 71
54 52 53 55 58 60 63 65 65 67 72 77 82 84 88 94 95 96 94 95 97 98 102 103 102 104 105 107 108 110 109 106 103 99 95 91 88 85 81 77 74 71 67

GFSMW_250_spd_045.txt.gz
Wind_Speed
16 20 14 19 25 17 25 33 26 36 48 43 40 40 39 43 57 57 57 60 60 57 58 63 67 75 78 82 73 70 68 66 63 62 63 60 62 66 71 73 76 77 79
27 28 20 19 31 30 31 31 36 37 39 42 41 46 55 58 56 53 53 55 59 64 71 77 79 79 79 77 71 67 61 61 62 62 63 67 67 61 69 80 81 81 83
33 34 29 28 29 32 37 38 39 43 40 43 46 44 45 50 57 61 63 66 66 62 64 67 69 70 70 66 65 62 60 60 64 67 69 73 72 76 76 74 81 82 84
24 27 36 32 30 37 34 36 39 42 42 45 45 46 50 54 54 57 59 62 66 69 68 67 66 63 61 61 60 61 62 66 69 72 75 76 77 81 86 85 81 80 85
32 27 27 29 33 35 35 36 34 35 36 41 49 53 56 57 60 62 64 66 65 63 63 62 60 59 60 59 60 62 67 71 76 77 77 77 81 88 91 91 92 90 89
32 26 26 25 25 31 36 39 39 37 41 41 41 44 46 49 50 46 45 54 60 61 57 58 59 55 57 62 63 67 73 75 77 77 81 83 88 92 89 88 90 93 96
27 27 28 29 28 28 30 34 35 37 40 41 42 43 45 46 41 38 47 53 58 58 58 57 54 57 64 68 71 73 77 78 79 82 85 90 92 91 91 94 96 98 100
28 32 34 35 36 36 37 37 39 40 40 42 34 35 44 45 40 42 45 57 56 53 56 56 59 64 70 75 76 76 79 81 83 86 92 96 92 91 93 96 100 103 104
31 32 35 36 35 36 36 37 37 36 38 38 31 41 40 45 47 50 53 54 53 53 56 59 67 71 72 72 76 79 82 85 86 92 97 93 93 94 99 102 105 106 106
32 31 29 30 31 31 32 33 35 36 36 40 43 49 47 46 53 54 53 51 50 56 62 66 67 68 73 77 80 82 86 89 92 98 94 95 96 98 101 103 105 108 110
34 32 33 35 35 34 34 37 38 39 39 41 41 44 46 47 57 60 60 61 60 63 66 69 69 72 76 80 84 86 88 94 95 96 97 98 100 103 105 107 109 111 111
37 37 37 37 37 38 39 41 42 44 44 43 44 44 46 45 48 58 62 62 63 65 67 67 70 75 80 84 86 89 92 96 94 95 98 102 105 107 109 111 112 113 115
39 41 42 42 41 42 42 44 45 44 44 44 43 43 43 45 49 53 60 70 73 72 70 71 74 80 82 86 88 92 93 95 98 100 102 105 106 108 111 112 113 116 118
37 41 43 43 42 42 41 39 39 40 41 41 43 44 47 50 52 56 60 62 65 67 71 74 78 81 84 88 89 90 91 95 99 101 102 105 107 111 113 115 118 119 119
35 34 36 37 38 37 38 38 41 44 45 41 41 41 45 49 52 56 60 64 68 71 74 77 81 83 86 87 90 92 93 95 96 100 104 106 109 111 114 116 117 119 121
37 38 38 37 37 39 40 42 43 43 41 44 47 50 50 52 57 60 64 67 70 73 76 80 81 82 85 88 91 92 90 93 97 101 105 109 111 113 113 114 118 122 125
37 40 41 41 41 41 41 40 39 41 45 48 51 53 55 55 57 60 63 67 69 71 72 76 80 84 87 89 91 89 92 97 101 106 109 111 114 115 117 119 118 123 127
36 38 42 41 39 38 38 39 41 42 44 43 42 43 45 47 49 52 56 61 66 70 74 78 81 85 87 86 89 93 98 103 107 110 112 114 115 119 122 123 124 123 122
32 35 39 41 43 43 43 42 42 43 44 45 47 48 50 53 55 58 62 65 69 73 75 79 81 84 87 92 96 100 104 107 109 110 111 114 117 119 121 124 123 122 123
33 33 35 41 44 45 46 47 47 47 48 49 51 53 55 58 60 62 64 67 70 73 75 79 84 89 94 99 104 107 109 108 107 107 111 114 117 118 119 122 125 122 119
37 36 38 40 43 47 49 49 50 50 51 53 55 56 57 59 61 63 63 66 70 74 80 86 92 96 100 103 104 106 106 105 105 107 109 112 116 118 120 121 118 117 116
43 42 46 46 44 45 49 51 52 52 52 51 52 53 56 58 60 64 68 73 78 82 86 91 95 98 101 102 102 102 103 107 108 109 110 113 115 118 119 118 117 113 106
49 48 49 49 52 47 49 50 50 49 50 53 56 59 62 65 66 69 74 79 83 86 90 93 96 97 99 100 100 104 105 106 110 112 114 116 117 117 117 114 108 105 100
53 56 60 57 53 53 49 51 52 54 55 57 60 62 63 65 70 74 76 79 82 84 90 95 100 102 100 99 101 102 104 108 111 113 115 117 118 115 110 103 100 95 90
57 59 62 61 60 56 55 56 56 56 58 62 64 65 68 70 72 71 71 75 83 91 92 90 90 93 96 99 103 105 108 111 112 110 112 111 106 102 99 96 92 87 82
63 62 66 61 62 57 57 56 54 54 55 62 64 67 70 72 68 74 83 93 97 101 95 94 99 102 102 104 106 109 113 112 111 111 107 101 97 95 93 90 85 81 78

GFSMW_250_spd_048.txt.gz
Wind_Speed
23 18 16 20 22 22 27 39 42 41 46 47 55 63 58 54 61 60 50 53 55 56 57 58 62 66 68 67 70 74 80 79 79 77 77 72 66 64 65 68 71 74 74
18 22 21 18 18 25 25 28 33 34 34 37 36 43 50 53 56 57 60 62 60 56 58 62 65 63 69 76 80 80 80 81 79 74 72 70 66 63 65 69 72 75 80
25 25 27 24 22 19 26 27 30 32 32 35 40 42 41 46 48 52 51 54 61 66 67 70 69 73 75 78 79 76 75 74 73 70 67 66 66 67 70 72 72 77 79
35 30 26 28 26 28 35 34 37 39 42 43 43 43 48 55 54 53 52 50 52 56 59 61 66 68 70 70 72 75 74 71 67 66 67 69 71 74 78 78 80 80 85
38 28 29 31 30 29 33 38 39 39 42 45 49 48 48 52 56 56 57 59 62 67 70 70 71 68 71 71 73 72 72 70 67 67 71 74 77 81 83 86 92 92 93
37 43 32 29 33 30 32 37 36 39 42 43 43 41 43 48 49 48 50 50 56 63 62 64 67 65 67 71 71 70 68 68 72 76 79 79 84 86 87 89 92 96 103
36 38 43 39 29 27 30 29 34 40 41 44 43 45 45 45 48 48 45 49 49 48 56 62 73 73 72 72 72 70 70 73 78 83 83 86 88 90 93 97 100 104 104
45 41 42 35 29 32 33 32 32 34 35 37 38 40 44 50 52 50 45 49 44 48 62 66 69 72 71 69 70 74 72 78 84 82 86 90 91 94 98 101 105 104 104
34 40 45 44 41 44 45 44 42 42 42 43 44 44 36 41 47 45 51 52 48 54 60 67 75 77 76 73 71 72 83 83 82 88 92 94 96 99 102 104 104 105 105
31 35 37 38 40 41 44 48 46 44 43 40 42 41 42 46 48 51 53 54 57 57 64 70 73 75 73 69 75 80 84 85 88 91 94 99 99 102 104 105 107 108 108
35 36 37 37 37 36 36 36 41 39 39 43 43 43 45 48 52 52 59 58 59 61 66 69 72 72 74 78 82 84 85 86 90 93 96 101 104 103 105 106 106 108 113
25 35 39 40 37 38 40 38 42 42 41 45 44 48 46 49 51 49 51 53 56 65 70 71 73 75 77 80 83 83 87 89 93 95 98 101 103 105 106 107 108 112 116
20 25 32 34 37 40 42 42 44 43 42 46 48 50 47 46 43 46 51 52 55 59 62 68 76 81 84 85 87 88 89 91 95 97 99 101 103 106 108 108 114 117 120
26 23 25 27 30 34 36 37 38 40 40 39 42 45 45 40 42 48 51 54 57 60 63 66 70 73 77 81 85 87 87 89 92 95 99 101 104 105 109 114 118 123 124
25 28 27 25 28 29 31 36 38 39 36 32 38 42 46 47 50 52 52 55 58 59 61 64 68 71 74 76 78 79 82 87 91 95 99 102 105 110 114 119 120 119 118
26 25 28 26 31 32 31 33 33 36 37 43 43 46 47 50 50 54 57 59 61 63 64 64 64 64 67 71 76 80 84 87 89 95 100 105 110 115 117 116 113 113 118
30 27 28 26 27 32 32 35 37 37 39 41 42 45 46 46 46 47 48 49 52 54 57 60 63 67 71 75 78 80 84 89 94 101 107 110 111 111 112 110 112 115 118
33 31 27 27 22 24 28 32 38 40 41 42 44 46 47 48 50 51 52 54 57 59 63 66 68 70 72 74 79 85 91 97 101 103 103 105 107 109 107 108 110 111 117
37 38 35 29 29 29 31 33 36 38 43 46 47 49 51 52 54 56 58 59 62 64 65 68 70 70 73 79 87 88 88 91 94 93 94 97 99 102 105 108 110 114 118
42 41 43 42 37 37 39 43 42 41 40 44 48 51 53 55 56 59 60 60 61 63 66 65 70 77 78 78 74 88 91 91 92 96 97 98 101 105 110 112 115 115 117
47 46 46 47 47 44 45 46 47 48 45 44 47 49 50 51 53 54 56 60 63 61 66 72 73 74 69 78 84 91 94 98 101 102 100 101 103 108 110 113 117 119 118
49 52 53 52 54 53 52 53 56 54 52 50 50 52 54 56 57 58 60 61 64 66 70 73 74 72 81 87 92 94 104 103 107 106 104 104 107 109 111 115 117 116 112
49 52 55 55 57 57 57 60 61 58 56 58 55 55 56 55 55 56 58 59 63 66 70 70 73 77 84 92 96 101 105 110 109 107 105 108 110 112 115 117 115 110 106
54 53 55 57 60 61 62 64 64 64 62 63 61 60 63 61 59 59 62 64 69 71 74 75 80 87 95 100 106 108 112 111 109 109 112 112 115 118 116 114 111 107 103
57 55 56 57 62 64 66 68 70 70 69 68 67 68 72 71 67 68 66 71 72 79 78 82 92 98 102 108 113 113 115 114 115 117 116 117 118 117 114 111 106 101 95
61 60 59 59 65 67 69 71 74 76 75 74 75 75 80 74 73 69 75 81 83 85 88 95 101 106 114 114 119 119 119 122 123 119 119 119 115 111 107 103 99 95 91

GFSMW_250_spd_051.txt.gz
Wind_Speed
15 11 16 22 30 36 42 45 49 53 55 58 57 48 56 55 52 52 56 57 58 58 59 59 58 57 59 60 63 68 70 69 71 75 76 78 80 81 76 68 69 69 70
16 18 14 14 17 27 41 45 45 52 53 53 59 59 48 50 53 55 52 53 58 60 64 60 60 62 66 67 66 66 77 82 79 81 80 76 74 74 72 68 65 67 70
18 20 22 23 19 16 24 31 35 38 49 45 39 42 44 40 41 44 49 59 58 55 60 64 66 69 71 71 72 79 79 74 73 73 72 72 74 74 74 70 70 71 74
23 23 26 25 21 23 19 22 30 29 33 33 36 38 40 42 44 46 49 52 53 52 52 59 61 62 66 67 69 70 71 72 73 71 74 78 80 76 70 73 77 81 82
30 28 26 30 33 32 29 28 29 27 30 34 38 41 45 47 52 51 55 56 58 60 63 64 65 65 63 67 74 72 73 74 79 75 80 79 77 76 76 79 83 87 88
34 33 30 28 28 29 33 31 30 34 38 39 41 49 51 56 56 55 55 55 58 61 65 64 60 61 74 79 77 77 79 81 79 79 79 83 81 78 79 86 87 91 97
38 37 37 37 30 30 31 35 33 37 38 44 47 48 50 53 57 59 57 49 47 53 56 51 53 60 68 69 69 72 74 76 80 82 81 85 88 85 91 94 96 95 102
31 42 41 39 40 41 34 22 29 32 35 38 42 45 48 50 54 53 51 53 56 55 53 54 57 60 65 68 71 74 78 80 82 80 86 91 92 93 96 98 100 101 105
27 41 43 44 43 42 42 34 34 36 36 37 40 42 46 49 51 55 56 59 61 57 56 57 60 61 65 69 73 76 77 79 83 88 93 93 93 94 96 99 105 106 110
18 27 34 45 50 47 46 46 44 44 46 51 56 53 52 48 50 52 54 57 55 55 58 64 67 68 70 74 76 79 82 84 86 86 87 88 92 97 101 106 108 110 113
18 18 24 31 36 37 38 42 26 31 40 34 39 38 38 42 49 47 58 54 55 58 62 65 68 73 75 77 77 78 80 81 84 90 95 97 98 101 102 107 108 107 110
23 23 21 22 28 35 35 36 33 25 47 34 40 40 36 35 36 39 55 57 61 65 65 68 68 68 69 71 77 83 86 88 90 91 94 95 96 98 98 99 103 108 112
16 20 21 20 24 25 28 33 37 40 43 41 45 41 35 47 59 55 63 65 63 64 63 65 65 65 67 69 71 73 78 82 84 86 89 91 88 91 96 101 104 107 107
23 19 21 25 25 26 23 29 35 42 41 45 51 50 46 52 60 62 61 60 61 62 62 62 65 68 70 71 72 74 76 79 79 79 82 85 89 91 91 91 94 96 99
29 23 21 18 21 20 26 29 33 38 42 49 51 50 49 52 54 55 58 59 61 62 65 65 66 67 69 70 69 68 70 73 77 81 84 87 88 82 84 92 93 99 100
34 32 24 22 24 25 15 16 18 24 33 40 42 44 46 50 49 51 54 55 56 57 57 57 58 59 62 63 66 71 75 77 79 81 83 84 77 88 93 99 100 102 103
39 34 34 29 23 22 22 17 16 21 25 26 31 37 42 45 48 51 52 53 54 55 57 59 61 63 65 68 70 72 74 77 79 80 74 78 85 89 92 98 98 99 103
41 39 35 33 30 26 28 28 26 27 28 29 28 31 33 39 44 48 51 54 55 57 60 62 64 65 66 67 70 73 76 77 78 73 75 83 89 93 99 98 98 102 106
44 43 42 40 37 34 33 35 34 35 36 33 34 36 37 36 35 34 39 46 54 60 63 64 64 64 67 72 73 73 75 69 70 77 83 89 98 105 104 103 98 102 107
46 46 46 46 45 41 43 45 46 43 43 41 44 44 44 44 44 46 47 50 50 56 61 66 66 63 60 61 63 67 68 68 77 84 90 94 102 109 106 104 105 109 113
47 46 50 50 50 47 47 48 50 50 48 49 50 51 52 52 52 53 51 52 57 62 64 63 63 64 68 70 72 74 72 73 85 90 96 101 109 113 110 113 118 117 111
51 51 50 52 54 53 52 53 53 52 51 53 54 55 57 59 60 59 61 63 63 68 69 66 67 71 74 75 78 84 79 80 91 98 103 109 115 119 116 119 116 114 114
55 52 54 56 54 56 58 58 58 54 54 59 63 64 63 67 68 69 68 70 71 72 75 77 73 74 78 82 88 87 86 90 97 104 111 116 120 119 122 117 116 119 120
59 58 57 59 57 57 63 64 63 61 61 64 68 68 67 71 75 75 74 73 75 77 79 82 83 81 80 79 83 87 92 98 103 111 116 122 118 120 121 123 125 124 120
61 63 63 65 65 64 68 70 67 66 67 72 75 75 75 76 80 82 83 80 81 83 87 87 94 92 87 84 88 93 97 104 111 118 122 123 125 122 127 128 125 124 121
64 66 67 68 71 74 73 73 70 70 74 78 79 79 81 83 86 89 87 85 87 90 95 96 98 97 96 92 92 98 105 112 118 123 124 126 126 127 125 124 123 121 114